| time (UTC) | temp F | wind direction | speed MPH | gust MPH | rain 1hr in | rain 24hr in | rain mn in | humidity % | barometer mb |
| 20260902103057 | 68 | 162 | 0.0 | 2.0 | 0.00 | 0.56 | 0.00 | 97 | 1017.7 |
| 20260902101551 | 68 | 178 | 0.0 | 1.0 | 0.00 | 0.56 | 0.00 | 98 | 1017.7 |
| 20260902100053 | 68 | 0 | 0.0 | 2.0 | 0.00 | 0.56 | 0.00 | 98 | 1017.8 |
| 20260902094557 | 68 | 178 | 0.0 | 2.0 | 0.00 | 0.56 | 0.00 | 98 | 1017.7 |
| 20260902093052 | 68 | 178 | 0.0 | 2.0 | 0.00 | 0.56 | 0.00 | 98 | 1017.8 |
| 20260902091601 | 68 | 0 | 0.0 | 2.0 | 0.00 | 0.56 | 0.00 | 98 | 1017.6 |
| 20260902090057 | 67 | 162 | 0.0 | 1.0 | 0.00 | 0.56 | 0.00 | 98 | 1017.6 |
| 20260902084558 | 67 | 0 | 0.0 | 1.0 | 0.00 | 0.61 | 0.00 | 98 | 1017.9 |
| 20260902083057 | 67 | 0 | 0.0 | 2.0 | 0.00 | 0.61 | 0.00 | 98 | 1017.8 |
| 20260902081548 | 67 | 153 | 0.0 | 2.0 | 0.00 | 0.61 | 0.00 | 97 | 1017.6 |
| 20260902080112 | 67 | 162 | 0.0 | 2.0 | 0.00 | 0.61 | 0.00 | 97 | 1017.4 |
| 20260902074552 | 67 | 0 | 0.0 | 1.0 | 0.00 | 0.61 | 0.00 | 97 | 1017.5 |
| 20260902073048 | 67 | 0 | 0.0 | 2.0 | 0.00 | 0.61 | 0.00 | 97 | 1017.5 |
| 20260902071559 | 68 | 205 | 0.0 | 1.0 | 0.00 | 0.61 | 0.00 | 97 | 1017.3 |
| 20260902070054 | 68 | 165 | 0.0 | 2.0 | 0.00 | 0.61 | 0.00 | 97 | 1017.4 |
| 20260902064555 | 68 | 0 | 0.0 | 1.0 | 0.00 | 0.61 | 0.00 | 97 | 1017.6 |
| 20260902063104 | 68 | 178 | 0.0 | 1.0 | 0.00 | 0.61 | 0.00 | 97 | 1017.6 |
| 20260902061611 | 68 | 0 | 0.0 | 1.0 | 0.00 | 0.61 | 0.00 | 97 | 1017.7 |
| 20260902060105 | 69 | 0 | 0.0 | 1.0 | 0.00 | 0.61 | 0.00 | 97 | 1017.8 |
| 20260902054600 | 69 | 0 | 0.0 | 1.0 | 0.00 | 0.61 | 0.00 | 97 | 1017.8 |
| 20260902053054 | 69 | 0 | 0.0 | 2.0 | 0.00 | 0.61 | 0.00 | 97 | 1017.6 |
| 20260902051551 | 69 | 205 | 1.0 | 2.0 | 0.00 | 0.61 | 0.00 | 97 | 1017.6 |
| 20260902050052 | 69 | 221 | 1.0 | 2.0 | 0.00 | 0.61 | 0.00 | 97 | 1017.5 |
| 20260902044557 | 69 | 221 | 0.0 | 2.0 | 0.00 | 0.61 | 0.00 | 96 | 1017.5 |
| 20260902043102 | 69 | 9 | 0.0 | 2.0 | 0.00 | 0.61 | 0.00 | 96 | 1017.3 |
| 20260902041552 | 70 | 0 | 0.0 | 1.0 | 0.00 | 0.61 | 0.00 | 96 | 1017.1 |
| 20260902040051 | 70 | 0 | 0.0 | 1.0 | 0.00 | 0.61 | 0.00 | 96 | 1017.2 |
| 20260902034557 | 70 | 0 | 0.0 | 1.0 | 0.00 | 0.61 | 0.61 | 96 | 1017.0 |
| 20260902033104 | 70 | 93 | 0.0 | 1.0 | 0.00 | 0.61 | 0.61 | 96 | 1017.0 |
| 20260902031553 | 71 | 0 | 0.0 | 2.0 | 0.00 | 0.61 | 0.61 | 96 | 1016.8 |
| 20260902024555 | 71 | 0 | 0.0 | 1.0 | 0.00 | 0.62 | 0.61 | 95 | 1016.9 |
| 20260902023053 | 71 | 76 | 0.0 | 2.0 | 0.00 | 0.62 | 0.61 | 95 | 1017.0 |
| 20260902021554 | 71 | 0 | 1.0 | 2.0 | 0.00 | 0.62 | 0.61 | 94 | 1017.0 |
| 20260902020053 | 72 | 0 | 0.0 | 2.0 | 0.00 | 0.62 | 0.61 | 94 | 1017.0 |
| 20260902014551 | 72 | 0 | 0.0 | 2.0 | 0.00 | 0.66 | 0.61 | 94 | 1017.0 |
| 20260902013057 | 72 | 0 | 0.0 | 1.0 | 0.00 | 0.66 | 0.61 | 93 | 1016.9 |
| 20260902011557 | 72 | 0 | 0.0 | 1.0 | 0.00 | 0.66 | 0.61 | 93 | 1016.5 |
| 20260902010053 | 72 | 0 | 0.0 | 1.0 | 0.00 | 0.66 | 0.61 | 92 | 1016.5 |
| 20260902004553 | 72 | 0 | 0.0 | 1.0 | 0.00 | 0.74 | 0.61 | 92 | 1016.3 |
| 20260902003100 | 73 | 0 | 0.0 | 1.0 | 0.00 | 0.74 | 0.61 | 91 | 1016.0 |
| 20260902001554 | 73 | 0 | 0.0 | 1.0 | 0.00 | 0.74 | 0.61 | 91 | 1015.8 |
| 20260902000053 | 73 | 0 | 0.0 | 1.0 | 0.00 | 0.74 | 0.61 | 91 | 1015.8 |
| 20260901234559 | 73 | 0 | 0.0 | 1.0 | 0.00 | 0.77 | 0.61 | 91 | 1015.7 |
| 20260901233056 | 74 | 0 | 0.0 | 1.0 | 0.00 | 0.77 | 0.61 | 90 | 1016.0 |
| 20260901231552 | 74 | 9 | 0.0 | 2.0 | 0.00 | 0.77 | 0.61 | 89 | 1015.5 |
| 20260901230053 | 74 | 41 | 0.0 | 2.0 | 0.00 | 0.77 | 0.61 | 89 | 1015.6 |
| 20260901224558 | 75 | 9 | 0.0 | 2.0 | 0.00 | 0.78 | 0.61 | 89 | 1015.7 |
| 20260901223049 | 75 | 61 | 0.0 | 2.0 | 0.00 | 0.78 | 0.61 | 88 | 1015.3 |
| 20260901221616 | 75 | 0 | 0.0 | 2.0 | 0.00 | 0.78 | 0.61 | 88 | 1015.4 |
| 20260901220105 | 75 | 0 | 0.0 | 2.0 | 0.00 | 0.78 | 0.61 | 89 | 1015.5 |
| 20260901214551 | 76 | 0 | 0.0 | 1.0 | 0.00 | 0.79 | 0.61 | 90 | 1015.5 |
| 20260901213107 | 75 | 232 | 0.0 | 2.0 | 0.00 | 0.79 | 0.61 | 90 | 1015.6 |
| 20260901211558 | 75 | 0 | 0.0 | 2.0 | 0.00 | 0.79 | 0.61 | 90 | 1015.0 |
| 20260901210053 | 75 | 0 | 1.0 | 3.0 | 0.00 | 0.79 | 0.61 | 91 | 1015.3 |
| 20260901204550 | 74 | 51 | 0.0 | 1.0 | 0.00 | 0.84 | 0.61 | 95 | 1015.2 |
| 20260901203105 | 74 | 0 | 0.0 | 1.0 | 0.00 | 0.84 | 0.61 | 95 | 1015.4 |
| 20260901201553 | 74 | 0 | 0.0 | 2.0 | 0.00 | 0.84 | 0.61 | 95 | 1015.5 |
| 20260901200054 | 74 | 0 | 0.0 | 2.0 | 0.00 | 0.84 | 0.61 | 97 | 1015.6 |
| 20260901194548 | 73 | 9 | 0.0 | 2.0 | 0.00 | 0.92 | 0.61 | 97 | 1015.7 |
| 20260901193100 | 73 | 0 | 0.0 | 2.0 | 0.00 | 0.92 | 0.61 | 98 | 1015.6 |
| 20260901191614 | 73 | 9 | 0.0 | 2.0 | 0.00 | 0.92 | 0.61 | 98 | 1015.5 |
| 20260901190056 | 73 | 0 | 0.0 | 2.0 | 0.00 | 0.92 | 0.61 | 98 | 1015.6 |
| 20260901184552 | 73 | 0 | 0.0 | 2.0 | 0.00 | 0.92 | 0.61 | 98 | 1015.4 |
| 20260901183053 | 72 | 205 | 0.0 | 2.0 | 0.00 | 0.92 | 0.61 | 98 | 1015.6 |
| 20260901181549 | 72 | 162 | 0.0 | 2.0 | 0.00 | 0.92 | 0.61 | 98 | 1015.1 |
| 20260901180058 | 72 | 0 | 0.0 | 2.0 | 0.00 | 0.92 | 0.61 | 98 | 1015.1 |
| 20260901174553 | 71 | 0 | 0.0 | 2.0 | 0.00 | 0.96 | 0.61 | 98 | 1015.3 |
| 20260901173059 | 72 | 0 | 0.0 | 2.0 | 0.00 | 0.96 | 0.61 | 98 | 1015.0 |
| 20260901171606 | 71 | 137 | 0.0 | 2.0 | 0.00 | 0.96 | 0.61 | 98 | 1015.1 |
| 20260901170054 | 69 | 0 | 0.0 | 2.0 | 0.00 | 0.96 | 0.61 | 98 | 1015.2 |
| 20260901164553 | 69 | 0 | 0.0 | 2.0 | 0.00 | 1.09 | 0.61 | 98 | 1015.3 |
| 20260901163057 | 69 | 221 | 0.0 | 1.0 | 0.00 | 1.09 | 0.61 | 98 | 1015.6 |
| 20260901161554 | 69 | 0 | 1.0 | 5.0 | 0.00 | 1.09 | 0.61 | 98 | 1015.4 |
| 20260901160105 | 68 | 178 | 1.0 | 3.0 | 0.00 | 1.09 | 0.61 | 98 | 1015.2 |
| 20260901154553 | 68 | 178 | 1.0 | 2.0 | 0.01 | 1.11 | 0.61 | 98 | 1015.5 |
| 20260901153103 | 68 | 0 | 0.0 | 2.0 | 0.01 | 1.11 | 0.61 | 98 | 1015.6 |
| 20260901151551 | 68 | 162 | 0.0 | 2.0 | 0.02 | 1.11 | 0.61 | 98 | 1015.6 |
| 20260901150056 | 68 | 137 | 0.0 | 2.0 | 0.02 | 1.11 | 0.61 | 98 | 1015.8 |
| 20260901144604 | 68 | 221 | 0.0 | 2.0 | 0.02 | 1.10 | 0.60 | 98 | 1015.4 |
| 20260901143103 | 67 | 153 | 0.0 | 2.0 | 0.03 | 1.10 | 0.60 | 98 | 1015.3 |
| 20260901141600 | 67 | 0 | 0.0 | 2.0 | 0.07 | 1.09 | 0.58 | 98 | 1015.6 |
| 20260901140055 | 67 | 0 | 0.0 | 2.0 | 0.20 | 1.09 | 0.58 | 98 | 1015.4 |
| 20260901134554 | 67 | 229 | 0.0 | 2.0 | 0.19 | 1.08 | 0.58 | 98 | 1015.4 |
| 20260901133104 | 67 | 221 | 0.0 | 2.0 | 0.19 | 1.07 | 0.57 | 98 | 1015.6 |
| 20260901131602 | 67 | 193 | 1.0 | 2.0 | 0.23 | 1.01 | 0.51 | 98 | 1015.6 |
| 20260901130055 | 67 | 221 | 0.0 | 1.0 | 0.16 | 0.89 | 0.39 | 98 | 1015.8 |
| 20260901124559 | 66 | 162 | 0.0 | 2.0 | 0.23 | 0.89 | 0.39 | 98 | 1015.7 |
| 20260901123105 | 66 | 93 | 1.0 | 3.0 | 0.26 | 0.88 | 0.38 | 98 | 1015.6 |
| 20260901121556 | 66 | 234 | 1.0 | 4.0 | 0.21 | 0.78 | 0.28 | 98 | 1016.3 |
| 20260901120054 | 66 | 257 | 1.0 | 2.0 | 0.16 | 0.73 | 0.23 | 98 | 1016.2 |
| 20260901114550 | 66 | 0 | 0.0 | 2.0 | 0.11 | 0.66 | 0.16 | 98 | 1016.1 |
| 20260901113104 | 66 | 129 | 0.0 | 3.0 | 0.07 | 0.62 | 0.12 | 98 | 1015.7 |
| 20260901111553 | 66 | 0 | 0.0 | 1.0 | 0.02 | 0.57 | 0.07 | 98 | 1016.1 |
| 20260901110105 | 66 | 0 | 0.0 | 2.0 | 0.01 | 0.56 | 0.06 | 98 | 1015.4 |
| 20260901104606 | 66 | 0 | 0.0 | 1.0 | 0.00 | 0.55 | 0.05 | 98 | 1015.4 |